This is the latest recevied weather packets stored in our database for station/object W5ADC. If no packets are shown the sender has not sent any weather packets the latest 10 day(s).
| Time | Temp. | Humidity | Pressure | Rain* | Wind** | Luminosity | Snow |
|---|---|---|---|---|---|---|---|
| 1777648215 | 13.89° C | 80% | 1013.7 hPa | 0 mm | - | 63 W/m² | - |
| 1777647910 | 13.89° C | 80% | 1013.4 hPa | 0 mm | - | 73 W/m² | - |
| 1777647607 | 13.89° C | 81% | 1013.5 hPa | 0 mm | - | 90 W/m² | - |
| 1777647303 | 13.89° C | 80% | 1013.7 hPa | 0 mm | - | 82 W/m² | - |
| 1777647001 | 13.89° C | 81% | 1013.8 hPa | 0 mm | - | 80 W/m² | - |
| 1777646696 | 13.89° C | 80% | 1014 hPa | 0 mm | - | 87 W/m² | - |
| 1777646392 | 13.89° C | 81% | 1013.8 hPa | 0 mm | - | 88 W/m² | - |
| 1777646089 | 13.33° C | 80% | 1013.5 hPa | 0 mm | - | 69 W/m² | - |
| 1777645785 | 13.89° C | 81% | 1013.8 hPa | 0 mm | - | 44 W/m² | - |
| 1777645484 | 13.33° C | 81% | 1013.2 hPa | 0 mm | - | 53 W/m² | - |
| 1777645179 | 13.89° C | 80% | 1013.1 hPa | 0 mm | - | 68 W/m² | - |
| 1777644875 | 13.33° C | 82% | 1013 hPa | 0 mm | - | 85 W/m² | - |
| 1777644573 | 13.33° C | 82% | 1013.5 hPa | 0 mm | - | 59 W/m² | - |
| 1777644268 | 13.33° C | 82% | 1013.1 hPa | 0 mm | - | 66 W/m² | - |
| 1777643965 | 13.33° C | 83% | 1013.2 hPa | 0 mm | - | 73 W/m² | - |
| 1777643663 | 13.33° C | 83% | 1013.4 hPa | 0 mm | - | 84 W/m² | - |
| 1777643360 | 13.33° C | 82% | 1013.2 hPa | 0 mm | - | 68 W/m² | - |
| 1777643056 | 13.33° C | 83% | 1013.2 hPa | 0 mm | - | 68 W/m² | - |
| 1777642752 | 13.33° C | 83% | 1013.4 hPa | 0 mm | - | 80 W/m² | - |
| 1777642450 | 13.33° C | 83% | 1013.4 hPa | 0 mm | - | 72 W/m² | - |
| 1777642146 | 13.33° C | 83% | 1013.4 hPa | 0 mm | - | 68 W/m² | - |
| 1777641843 | 13.33° C | 83% | 1013.4 hPa | 0 mm | - | 58 W/m² | - |
| 1777641538 | 13.33° C | 82% | 1013.4 hPa | 0 mm | - | 44 W/m² | - |
| 1777641233 | 13.33° C | 83% | 1013.5 hPa | 0 mm | - | 30 W/m² | - |
| 1777640930 | 13.33° C | 84% | 1013.7 hPa | 0 mm | - | 20 W/m² | - |
* Rain latest hour (hover to see other rain measurements)
** Current wind speed in m/s (hover to see current wind gust speed)